Regional Weather Roundup
Issued by NWS

Home | Current Version | Previous Version | Graphics & Text | Print | Product List | Glossary On
Versions: 1 2 3 4 5 6 7 8 9 10 11 12 13 14 15 16 17 18 19 20 21 22 23 24 25 26 27 28 29 30 31 32 33 34 35 36 37 38 39 40 41 42 43 44 45 46 47 48 49 50
000
ASUS45 KPSR 032110
RWRAZ

ARIZONA HOURLY REGIONAL WEATHER ROUNDUP
NATIONAL WEATHER SERVICE PHOENIX AZ
200 PM MST FRI JUL 03 2015

NOTE: FAIR INDICATES FEW OR NO CLOUDS BELOW 12,000 FEET WITH NO
SIGNIFICANT WEATHER AND/OR OBSTRUCTIONS TO VISIBILITY.

AZZ001>003-036-032200-
NORTHWEST ARIZONA

CITY           SKY/WX    TMP DP  RH WIND       PRES   REMARKS
BULLHEAD CITY  MOSUNNY  108  52  15 S10       29.75F HX 105
KINGMAN        SUNNY    100  46  16 SW14      29.98F
$$

AZZ004>008-015-016-018-032200-
NORTH CENTRAL ARIZONA

CITY           SKY/WX    TMP DP  RH WIND       PRES   REMARKS
GRAND CANYON   PTSUNNY   79  52  38 SE3       30.22S
WILLIAMS       PTSUNNY   81  52  36 VRB3G15   30.29F
PRESCOTT       CLOUDY    88  51  28 NW6       30.10F
FLAGSTAFF      CLOUDY    78  50  37 VRB6      30.26F
PAYSON         MOSUNNY   88  52  29 VRB5G16   30.10F
PAGE           PTSUNNY   93  48  21 VRB6      29.99F
$$

AZZ009>014-017-032200-
NORTHEAST ARIZONA

CITY           SKY/WX    TMP DP  RH WIND       PRES   REMARKS
WINSLOW        MOSUNNY   95  51  22 S7        30.03F
SAINT JOHNS    MOSUNNY   85  52  32 CALM      30.11F
WINDOW ROCK    PTSUNNY   86  49  27 E9        30.17F
SHOW LOW       MOSUNNY   81  50  34 SW7       30.19F
$$

AZZ023-032200-
GREATER PHOENIX AREA

CITY           SKY/WX    TMP DP  RH WIND       PRES   REMARKS
PHOENIX        CLOUDY    95  61  32 SW3       29.80F
BUCKEYE        CLOUDY    91  64  40 SE9       29.82F
GLENDALE       PTSUNNY   97  61  30 SE8       29.83F
LUKE AFB       CLOUDY    97  63  32 S7        29.80F
DEER VALLEY    PTSUNNY   93  59  31 SW7       29.83F
SCOTTSDALE     PTSUNNY   94  59  31 W6        29.85F
MESA-FALCON    CLOUDY    91  63  38 SW6       29.83F
CHANDLER       PTSUNNY   95  63  34 S10       29.82F
$$

AZZ027-028-032200-
SOUTHWEST MARICOPA COUNTY AND PINAL COUNTY

CITY           SKY/WX    TMP DP  RH WIND       PRES   REMARKS
CASA GRANDE    PTSUNNY   93  61  33 W5        29.84F
GILA BEND      FAIR     100  59  25 SE7       29.77F HX 100
$$

AZZ503-504-507>509-032200-
SOUTHEAST ARIZONA

CITY           SKY/WX    TMP DP  RH WIND       PRES   REMARKS
TUCSON         MOSUNNY   98  51  20 N8        29.92F
DAVIS-MONTHAN  MOSUNNY   96  53  23 VRB1      29.90F
RYAN FIELD     SUNNY     99  54  22 NW12      29.90F
NOGALES        PTSUNNY   92  58  31 VRB3      30.00F
SIERRA VISTA   SUNNY     87  51  28 SW6       30.08F
DOUGLAS        SUNNY     90  56  31 NW10      30.01F
SAFFORD        SUNNY     91  62  37 VRB6      29.94F
$$

AZZ020-021-025-026-031-032200-
SOUTHWEST ARIZONA

CITY           SKY/WX    TMP DP  RH WIND       PRES   REMARKS
YUMA           MOSUNNY  106  54  17 SW7       29.74F HX 104
$$

CAZ031-033-041-043-047-048-061-032200-
SOUTHERN CALIFORNIA

CITY           SKY/WX    TMP DP  RH WIND       PRES   REMARKS
DOWNTOWN L.A.  SUNNY     78  61  55 CALM      29.90F
L.A. AIRPORT   PTSUNNY   69  61  75 W14       29.93F
SAN DIEGO      MOSUNNY   75  61  61 NW10G21   29.92F
BURBANK        SUNNY     87  59  38 S12       29.90F
ONTARIO        PTSUNNY   88  58  36 SW8       29.89F
RIVERSIDE      PTSUNNY   91  55  29 W8        29.89F
PALM SPRINGS   PTSUNNY  106  54  17 CALM      29.77F HX 104
EL CENTRO NAS  PTSUNNY  106  48  14 E10       29.73F HX 102
IMPERIAL       PTSUNNY  105  49  15 E7        29.71F HX 102
BLYTHE         CLOUDY   102  56  21 S5        29.75F HX 101
NEEDLES        CLOUDY   106  52  16 SW10G18   29.77F HX 103
$$

NVZ020-UTZ003-032200-
SOUTHERN NEVADA-UTAH

CITY           SKY/WX    TMP DP  RH WIND       PRES   REMARKS
LAS VEGAS      PTSUNNY  106  45  12 SW14      29.79F HX 101
SALT LAKE CITY PTSUNNY   98  39  13 NW7       29.96F
$$

NMZ009-TXZ055-032200-
NEW MEXICO-WEST TEXAS

CITY           SKY/WX    TMP DP  RH WIND       PRES   REMARKS
ALBUQUERQUE    PTSUNNY   87  55  33 VRB3      30.12F
EL PASO        MOSUNNY   92  53  26 NE8       30.00F
$$


........................KEY........................
SKY/WX - SKY CONDITION/WEATHER
TMP    - TEMPERATURE IN FAHRENHEIT
DP     - DEW POINT IN FAHRENHEIT
RH     - RELATIVE HUMIDITY IN PERCENT
WIND   - DIRECTION AND SPEED IN MILES PER HOUR (MPH)
VRB    - VARIABLE WIND DIRECTION
PRES   - MEAN SEA LEVEL PRESSURE IN INCHES OF MERCURY
         F - FALLING PRESSURE   R - RISING PRESSURE
         S - STEADY PRESSURE
VSB    - VISIBILITY IN MILES
HX     - HEAT INDEX IN FAHRENHEIT
WCI    - WIND CHILL INDEX IN FAHRENHEIT
TC     - TEMPERATURE IN CELSIUS WHICH IS ALSO KNOWN AS
         TEMPERATURE IN CENTIGRADE
AFB    - AIR FORCE BASE
         LUKE AFB IS LUKE AIR FORCE BASE
         DAVIS-MONTHAN IS DAVIS-MONTHAN AIR FORCE BASE
NAS    - NAVAL AIR STATION
         EL CENTRO NAS IS EL CENTRO NAVAL AIR STATION
N/A    - NOT AVAILABLE



USA.gov is the U.S. government's official web portal to all federal, state and local government web resources and services.